KQ4NAL Weather Reports


Display with metric or nautical units.
time (UTC)temp
F
wind
direction
speed
MPH
gust
MPH
rain 1hr
in
rain 24hr
in
rain mn
in
humidity
%
barometer
mb
20260902120410 70 3 0.0 0.0 0.00 0.00 0.00 99 1019.8
20260902115909 70 340 0.0 0.0 0.00 0.00 0.00 99 1019.8
20260902115405 70 343 0.0 0.0 0.00 0.00 0.00 99 1019.9
20260902114902 69 345 0.0 0.0 0.00 0.00 0.00 99 1019.6
20260902114357 69 343 0.0 0.0 0.00 0.00 0.00 99 1019.6
20260902113857 69 344 0.0 0.0 0.00 0.00 0.00 99 1019.6
20260902113353 69 346 0.0 0.0 0.00 0.00 0.00 99 1019.6
20260902112852 69 348 0.0 0.0 0.00 0.00 0.00 99 1019.7
20260902112349 69 347 0.0 0.0 0.00 0.00 0.00 99 1019.4
20260902111844 68 345 0.0 0.0 0.00 0.00 0.00 99 1019.4
20260902111341 69 344 0.0 0.0 0.00 0.00 0.00 99 1019.3
20260902110836 69 345 0.0 0.0 0.00 0.00 0.00 99 1019.3
20260902110332 69 345 0.0 0.0 0.00 0.00 0.00 99 1019.3
20260902105832 68 345 0.0 0.0 0.00 0.00 0.00 99 1019.2
20260902105326 69 345 0.0 0.0 0.00 0.00 0.00 99 1019.3
20260902104821 69 344 0.0 0.0 0.00 0.00 0.00 99 1019.3
20260902104318 69 345 0.0 0.0 0.00 0.00 0.00 99 1019.4
20260902103812 69 345 0.0 0.0 0.00 0.00 0.00 99 1019.2
20260902103307 69 345 0.0 0.0 0.00 0.00 0.00 99 1019.4
20260902102802 69 345 0.0 0.0 0.00 0.00 0.00 99 1019.4
20260902102300 69 344 0.0 0.0 0.00 0.00 0.00 99 1019.2
20260902101755 69 347 0.0 0.0 0.00 0.00 0.00 99 1019.3
20260902101250 69 343 0.0 0.0 0.00 0.00 0.00 99 1019.3
20260902100749 69 345 0.0 0.0 0.00 0.00 0.00 99 1019.2
20260902100248 69 345 0.0 0.0 0.00 0.00 0.00 99 1019.3
20260902095743 69 345 0.0 0.0 0.00 0.00 0.00 99 1019.2
20260902095238 70 341 0.0 0.0 0.00 0.00 0.00 99 1019.2
20260902094732 70 347 0.0 0.0 0.00 0.00 0.00 99 1019.2
20260902094229 70 347 0.0 0.0 0.00 0.00 0.00 99 1019.1
20260902093727 69 347 0.0 0.0 0.00 0.00 0.00 99 1019.3
20260902093223 69 344 0.0 0.0 0.00 0.00 0.00 99 1019.3
20260902092718 69 346 0.0 0.0 0.00 0.00 0.00 99 1019.1
20260902092213 70 348 0.0 0.0 0.00 0.00 0.00 99 1019.2
20260902091712 69 344 0.0 0.0 0.00 0.00 0.00 99 1019.1
20260902091209 69 344 0.0 0.0 0.00 0.00 0.00 99 1019.2
20260902090705 69 344 0.0 0.0 0.00 0.00 0.00 99 1018.9
20260902090203 69 344 0.0 0.0 0.00 0.00 0.00 99 1019.0
20260902085658 69 344 0.0 0.0 0.00 0.00 0.00 99 1018.9
20260902085153 69 344 0.0 0.0 0.00 0.00 0.00 99 1018.9
20260902084649 69 344 0.0 0.0 0.00 0.00 0.00 99 1018.7
20260902084145 69 346 0.0 0.0 0.00 0.00 0.00 99 1018.8
20260902083640 70 345 0.0 0.0 0.00 0.00 0.00 99 1018.6
20260902083139 69 344 0.0 0.0 0.00 0.00 0.00 99 1018.6
20260902082635 69 344 0.0 0.0 0.00 0.00 0.00 99 1018.7
20260902082131 69 344 0.0 0.0 0.00 0.00 0.00 99 1018.6
20260902081628 69 344 0.0 0.0 0.00 0.00 0.00 99 1018.4
20260902081122 69 344 0.0 0.0 0.00 0.00 0.00 99 1018.4
20260902080617 69 344 0.0 0.0 0.00 0.00 0.00 99 1018.5
20260902080114 69 344 0.0 0.0 0.00 0.00 0.00 99 1018.4
20260902075613 69 344 0.0 0.0 0.00 0.00 0.00 99 1018.3
20260902075110 69 344 0.0 0.0 0.00 0.00 0.00 99 1018.5
20260902074605 70 344 0.0 0.0 0.00 0.00 0.00 99 1018.4
20260902074100 70 344 0.0 0.0 0.00 0.00 0.00 99 1018.4
20260902073555 70 343 0.0 0.0 0.00 0.00 0.00 99 1018.3
20260902073052 70 345 0.0 0.0 0.00 0.00 0.00 99 1018.5
20260902072547 70 343 0.0 0.0 0.00 0.00 0.00 99 1018.5
20260902072044 70 344 0.0 0.0 0.00 0.00 0.00 99 1018.5
20260902071543 70 341 0.0 0.0 0.00 0.00 0.00 99 1018.3
20260902071039 70 343 0.0 0.0 0.00 0.00 0.00 99 1018.4
20260902070534 71 343 0.0 0.0 0.00 0.00 0.00 99 1018.4
20260902070030 70 345 0.0 0.0 0.00 0.00 0.00 99 1018.2
20260902065529 70 345 0.0 0.0 0.00 0.00 0.00 99 1018.1
20260902065024 70 345 0.0 0.0 0.00 0.00 0.00 99 1018.3
20260902064520 70 345 0.0 0.0 0.00 0.00 0.00 99 1018.4
20260902064015 71 346 0.0 0.0 0.00 0.00 0.00 99 1018.5
20260902063515 71 346 0.0 0.0 0.00 0.00 0.00 99 1018.2
20260902063010 70 345 0.0 0.0 0.00 0.00 0.00 99 1018.5
20260902062508 71 343 0.0 0.0 0.00 0.00 0.00 99 1018.4
20260902062004 71 343 0.0 0.0 0.00 0.00 0.00 99 1018.2
20260902061459 71 343 0.0 0.0 0.00 0.00 0.00 99 1018.4
20260902060955 71 343 0.0 0.0 0.00 0.00 0.00 99 1018.4
20260902060451 71 343 0.0 0.0 0.00 0.00 0.00 99 1018.4
20260902055947 71 343 0.0 0.0 0.00 0.00 0.00 99 1018.4
20260902055443 71 343 0.0 0.0 0.00 0.00 0.00 99 1018.6
20260902054938 71 343 0.0 0.0 0.00 0.00 0.00 99 1018.5
20260902054432 71 343 0.0 0.0 0.00 0.00 0.00 99 1018.6
20260902053928 71 343 0.0 0.0 0.00 0.00 0.00 99 1018.6
20260902053423 71 343 0.0 0.0 0.00 0.00 0.00 99 1018.5
20260902052922 71 343 0.0 0.0 0.00 0.00 0.00 99 1018.5
20260902052418 71 343 0.0 0.0 0.00 0.00 0.00 99 1018.5
20260902051913 71 343 0.0 0.0 0.00 0.00 0.00 99 1018.7
20260902051408 71 343 0.0 0.0 0.00 0.00 0.00 99 1018.7
20260902050907 72 343 0.0 0.0 0.00 0.00 0.00 99 1018.3
20260902050407 72 343 0.0 0.0 0.00 0.00 0.00 99 1018.5
20260902045902 72 343 0.0 0.0 0.00 0.00 0.00 99 1018.4
20260902045357 72 344 0.0 0.0 0.00 0.00 0.00 99 1018.6
20260902044854 72 343 0.0 0.0 0.00 0.00 0.00 99 1018.6
20260902044349 72 343 0.0 0.0 0.00 0.00 0.00 99 1018.5
20260902043848 72 343 0.0 0.0 0.00 0.00 0.00 99 1018.3
20260902043344 72 343 0.0 0.0 0.00 0.00 0.00 99 1018.4
20260902042839 72 343 0.0 0.0 0.00 0.00 0.00 99 1018.5
20260902042338 72 343 0.0 0.0 0.00 0.00 0.00 99 1018.5
20260902041834 73 343 0.0 0.0 0.00 0.00 0.00 99 1018.5
20260902041333 73 343 0.0 0.0 0.00 0.00 0.00 99 1018.7
20260902040832 73 344 0.0 0.0 0.00 0.00 0.00 99 1018.8
20260902040328 73 344 0.0 0.0 0.00 0.00 0.00 99 1018.7
20260902035826 73 344 0.0 0.0 0.00 0.00 0.00 98 1018.6
20260902035322 73 344 0.0 0.0 0.00 0.00 0.00 98 1018.5
20260902034820 73 344 0.0 0.0 0.00 0.00 0.00 98 1018.5
20260902034316 73 344 0.0 0.0 0.00 0.00 0.00 98 1018.5
20260902033814 73 344 0.0 0.0 0.00 0.00 0.00 98 1018.4
20260902033310 73 344 0.0 0.0 0.00 0.00 0.00 98 1018.4
20260902032808 73 343 0.0 0.0 0.00 0.00 0.00 98 1018.5
20260902032306 73 343 0.0 0.0 0.00 0.00 0.00 97 1018.5
20260902031803 73 344 0.0 0.0 0.00 0.00 0.00 97 1018.6
20260902031259 73 344 0.0 0.0 0.00 0.00 0.00 97 1018.5
20260902030754 74 344 0.0 0.0 0.00 0.00 0.00 97 1018.5
20260902030249 74 344 0.0 0.0 0.00 0.00 0.00 96 1018.6
20260902025749 74 344 0.0 0.0 0.00 0.00 0.00 96 1018.7
20260902025244 74 344 0.0 0.0 0.00 0.00 0.00 96 1018.6
20260902024744 74 343 0.0 0.0 0.00 0.00 0.00 96 1018.5
20260902024239 74 344 0.0 0.0 0.00 0.00 0.00 96 1018.7
20260902023735 74 344 0.0 0.0 0.00 0.00 0.00 96 1018.6
20260902023230 75 344 0.0 0.0 0.00 0.00 0.00 96 1018.7
20260902022730 75 343 0.0 0.0 0.00 0.00 0.00 96 1018.6
20260902022225 75 346 0.0 0.0 0.00 0.00 0.00 96 1018.5
20260902021721 75 345 0.0 0.0 0.00 0.00 0.00 95 1018.7
20260902021221 75 346 0.0 0.0 0.00 0.00 0.00 95 1018.5
20260902020717 75 346 0.0 0.0 0.00 0.00 0.00 94 1018.5
20260902020213 75 343 0.0 0.0 0.00 0.00 0.00 94 1018.4
20260902015708 76 343 0.0 0.0 0.00 0.00 0.00 94 1018.6
20260902015205 75 343 0.0 0.0 0.00 0.00 0.00 94 1018.4
20260902014700 76 343 0.0 0.0 0.00 0.00 0.00 94 1018.5
20260902014156 76 343 0.0 0.0 0.00 0.00 0.00 93 1018.4
20260902013655 76 343 0.0 0.0 0.00 0.00 0.00 93 1018.5
20260902013151 76 343 0.0 0.0 0.00 0.00 0.00 92 1018.5
20260902012646 76 343 0.0 0.0 0.00 0.00 0.00 92 1018.1
20260902012142 77 343 0.0 0.0 0.00 0.00 0.00 91 1018.2
20260902011637 77 343 0.0 0.0 0.00 0.00 0.00 91 1018.2
20260902011136 77 343 0.0 0.0 0.00 0.00 0.00 91 1018.2
20260902010631 78 343 0.0 0.0 0.00 0.00 0.00 90 1018.1
20260902010127 78 345 0.0 0.0 0.00 0.00 0.00 90 1018.1
20260902005624 78 346 0.0 0.0 0.00 0.00 0.00 89 1017.8
20260902005121 78 345 0.0 0.0 0.00 0.00 0.00 89 1018.1
20260902004619 78 346 0.0 0.0 0.00 0.00 0.00 88 1017.9
20260902004109 79 346 0.0 0.0 0.00 0.00 0.00 88 1018.2
20260902003604 79 344 0.0 0.0 0.00 0.00 0.00 87 1018.1
20260902003100 80 344 0.0 0.0 0.00 0.00 0.00 86 1018.2
20260902002555 80 344 0.0 0.0 0.00 0.00 0.00 85 1018.0
20260902002050 81 345 0.0 0.0 0.00 0.00 0.00 84 1018.1
20260902001545 82 345 0.0 0.0 0.00 0.00 0.00 83 1017.9
20260902001039 82 345 0.0 0.0 0.00 0.00 0.00 81 1017.9
20260902000534 83 345 0.0 0.0 0.00 0.00 0.00 80 1018.2
20260902000030 84 345 0.0 0.0 0.00 0.00 0.00 79 1018.4
20260901235524 84 345 0.0 0.0 0.00 0.00 0.00 77 1018.0
20260901235019 85 346 0.0 0.0 0.00 0.00 0.00 76 1018.3
20260901234518 86 345 0.0 0.0 0.00 0.00 0.00 75 1018.2
20260901234013 87 345 0.0 0.0 0.00 0.00 0.00 74 1018.2
20260901233508 88 344 0.0 0.0 0.00 0.00 0.00 70 1018.1
20260901233005 89 344 0.0 0.0 0.00 0.00 0.00 69 1018.2
20260901232500 89 320 0.0 0.0 0.00 0.00 0.00 65 1018.3
20260901231954 90 334 0.0 0.0 0.00 0.00 0.00 67 1018.3
20260901231451 90 334 0.0 0.0 0.00 0.00 0.00 63 1018.1
20260901230948 91 317 0.0 1.0 0.00 0.00 0.00 62 1018.2
20260901230447 91 321 0.0 0.0 0.00 0.00 0.00 62 1018.2
20260901225942 91 342 0.0 0.0 0.00 0.00 0.00 62 1017.9
20260901225441 91 325 0.0 0.0 0.00 0.00 0.00 58 1018.1
20260901224937 91 331 0.0 0.0 0.00 0.00 0.00 58 1018.2
20260901224433 93 316 2.0 2.0 0.00 0.00 0.00 57 1018.1
20260901223929 93 329 0.0 0.0 0.00 0.00 0.00 56 1018.2
20260901223424 93 340 0.0 0.0 0.00 0.00 0.00 56 1018.0
20260901222919 93 263 3.0 3.0 0.00 0.00 0.00 55 1018.0
20260901222416 93 285 2.0 2.0 0.00 0.00 0.00 54 1018.1
20260901221911 93 358 2.0 2.0 0.00 0.00 0.00 57 1018.0
20260901221407 94 238 1.0 3.0 0.00 0.00 0.00 56 1018.1
20260901220902 94 342 0.0 0.0 0.00 0.00 0.00 53 1018.0
20260901220401 94 317 5.0 7.0 0.00 0.00 0.00 53 1018.0
20260901215900 95 346 0.0 0.0 0.00 0.00 0.00 53 1018.2
20260901215359 94 335 0.0 1.0 0.00 0.00 0.00 54 1017.7
20260901214858 93 277 2.0 2.0 0.00 0.00 0.00 56 1018.1
20260901214357 94 241 2.0 2.0 0.00 0.00 0.00 54 1018.1
20260901213856 94 282 2.0 2.0 0.00 0.00 0.00 54 1018.2
20260901213351 93 235 3.0 5.0 0.00 0.00 0.00 54 1018.0
20260901212845 94 207 7.0 9.0 0.00 0.00 0.00 55 1018.0
20260901212341 96 352 0.0 1.0 0.00 0.00 0.00 54 1018.1
20260901211837 95 332 1.0 2.0 0.00 0.00 0.00 51 1017.8
20260901211332 95 336 2.0 2.0 0.00 0.00 0.00 52 1018.1
20260901210828 94 283 2.0 6.0 0.00 0.00 0.00 52 1018.3
20260901210323 95 204 3.0 5.0 0.00 0.00 0.00 53 1018.0
20260901205820 96 267 3.0 3.0 0.00 0.00 0.00 53 1018.2
20260901205320 95 344 1.0 1.0 0.00 0.00 0.00 51 1018.2
20260901204814 93 152 3.0 5.0 0.00 0.00 0.00 56 1018.3
20260901204311 94 307 3.0 3.0 0.00 0.00 0.00 54 1018.4
20260901203810 94 298 3.0 3.0 0.00 0.00 0.00 53 1018.5
20260901203306 94 243 3.0 5.0 0.00 0.00 0.00 54 1018.5
20260901202806 94 280 0.0 0.0 0.00 0.00 0.00 54 1018.4
20260901202300 94 206 4.0 5.0 0.00 0.00 0.00 54 1018.4
20260901201756 95 235 2.0 5.0 0.00 0.00 0.00 52 1018.4
20260901201256 96 246 3.0 3.0 0.00 0.00 0.00 54 1018.4
20260901200750 94 312 0.0 0.0 0.00 0.00 0.00 54 1018.4
20260901200246 94 182 4.0 5.0 0.00 0.00 0.00 55 1018.5
20260901195744 94 213 3.0 3.0 0.00 0.00 0.00 55 1018.5
20260901195238 94 211 2.0 3.0 0.00 0.00 0.00 55 1018.4
20260901194733 95 209 4.0 6.0 0.00 0.00 0.00 54 1018.9
20260901194228 94 220 4.0 5.0 0.00 0.00 0.00 55 1018.6
20260901193724 95 245 3.0 3.0 0.00 0.00 0.00 55 1018.7
20260901193223 93 308 1.0 1.0 0.00 0.00 0.00 55 1018.8
20260901192718 93 214 7.0 8.0 0.00 0.00 0.00 56 1018.8
20260901192214 94 213 5.0 7.0 0.00 0.00 0.00 56 1018.9
20260901191710 94 238 2.0 7.0 0.00 0.00 0.00 55 1019.0
20260901191205 93 161 5.0 7.0 0.00 0.00 0.00 57 1018.8
20260901190701 94 255 3.0 5.0 0.00 0.00 0.00 59 1018.9
20260901190200 94 208 5.0 7.0 0.00 0.00 0.00 58 1019.1
20260901185659 95 330 2.0 2.0 0.00 0.00 0.00 58 1019.2
20260901185157 93 333 1.0 2.0 0.00 0.00 0.00 59 1019.3
20260901184654 94 331 0.0 0.0 0.00 0.00 0.00 57 1019.3
20260901184149 94 258 1.0 3.0 0.00 0.00 0.00 59 1019.2
20260901183643 93 346 0.0 0.0 0.00 0.00 0.00 59 1019.3
20260901183138 94 174 5.0 7.0 0.00 0.00 0.00 58 1019.2
20260901182634 93 277 0.0 0.0 0.00 0.00 0.00 60 1019.3
20260901182133 93 128 2.0 3.0 0.00 0.00 0.00 60 1019.3
20260901181628 92 331 2.0 3.0 0.00 0.00 0.00 59 1019.3
20260901181128 93 342 4.0 6.0 0.00 0.00 0.00 61 1019.6
20260901180622 92 296 3.0 3.0 0.00 0.00 0.00 62 1019.5
20260901180116 92 219 5.0 6.0 0.00 0.00 0.00 61 1019.6
20260901175615 92 198 7.0 8.0 0.00 0.00 0.00 61 1019.5
20260901175110 92 245 4.0 5.0 0.00 0.00 0.00 62 1019.5
20260901174605 92 316 1.0 1.0 0.00 0.00 0.00 60 1019.6
20260901174102 92 205 4.0 5.0 0.00 0.00 0.00 63 1019.6
20260901173602 92 297 3.0 3.0 0.00 0.00 0.00 63 1019.8
20260901173057 92 326 2.0 3.0 0.00 0.00 0.00 61 1019.8
20260901172553 93 349 2.0 2.0 0.00 0.00 0.00 61 1019.9
20260901172051 92 341 2.0 5.0 0.00 0.00 0.00 61 1019.9
20260901171544 92 258 3.0 5.0 0.00 0.00 0.00 62 1019.9
20260901171044 91 176 6.0 8.0 0.00 0.00 0.00 64 1019.9
20260901170543 91 186 7.0 8.0 0.00 0.00 0.00 63 1019.6
20260901170038 92 264 3.0 5.0 0.00 0.00 0.00 60 1020.0
20260901165532 91 258 3.0 3.0 0.00 0.00 0.00 63 1019.8
20260901165028 92 319 3.0 3.0 0.00 0.00 0.00 61 1020.1
20260901164523 91 311 1.0 1.0 0.00 0.00 0.00 62 1019.9
20260901164018 91 264 4.0 5.0 0.00 0.00 0.00 61 1020.1
20260901163514 91 302 5.0 6.0 0.00 0.00 0.00 63 1020.0
20260901163013 92 305 0.0 0.0 0.00 0.00 0.00 60 1020.1
20260901162508 91 273 1.0 2.0 0.00 0.00 0.00 61 1020.0
20260901162007 91 252 3.0 3.0 0.00 0.00 0.00 62 1020.0
20260901161506 90 340 0.0 0.0 0.00 0.00 0.00 64 1020.1
20260901161001 91 243 4.0 5.0 0.00 0.00 0.00 62 1020.0
20260901160457 90 218 6.0 9.0 0.00 0.00 0.00 62 1020.2
20260901155955 89 333 1.0 2.0 0.00 0.00 0.00 64 1020.2
20260901155450 90 297 3.0 3.0 0.00 0.00 0.00 64 1020.5
20260901154947 89 310 4.0 5.0 0.00 0.00 0.00 65 1020.4
20260901154446 89 231 7.0 9.0 0.00 0.00 0.00 65 1020.3
20260901153940 89 316 3.0 3.0 0.00 0.00 0.00 64 1020.2
20260901153430 89 349 3.0 6.0 0.00 0.00 0.00 66 1020.1
20260901152929 89 290 3.0 3.0 0.00 0.00 0.00 67 1020.4
20260901152429 88 358 0.0 1.0 0.00 0.00 0.00 66 1020.3
20260901151929 90 303 2.0 2.0 0.00 0.00 0.00 66 1020.2
20260901151424 90 334 0.0 0.0 0.00 0.00 0.00 66 1020.6
20260901150923 88 337 1.0 1.0 0.00 0.00 0.00 68 1020.4
20260901150421 88 11 1.0 1.0 0.00 0.00 0.00 68 1020.3
20260901145918 88 301 2.0 2.0 0.00 0.00 0.00 68 1020.4
20260901145413 87 329 3.0 3.0 0.00 0.00 0.00 70 1020.3
20260901144908 86 305 3.0 5.0 0.00 0.00 0.00 71 1020.4
20260901144404 86 233 3.0 5.0 0.00 0.00 0.00 73 1020.6
20260901143859 86 317 1.0 1.0 0.00 0.00 0.00 75 1020.6
20260901143355 85 338 1.0 2.0 0.00 0.00 0.00 75 1020.4
20260901142852 84 329 3.0 3.0 0.00 0.00 0.00 76 1020.4
20260901142350 85 346 0.0 0.0 0.00 0.00 0.00 77 1020.3
20260901141846 84 306 1.0 2.0 0.00 0.00 0.00 78 1020.6
20260901141341 83 292 4.0 5.0 0.00 0.00 0.00 78 1020.5
20260901140840 84 345 1.0 1.0 0.00 0.00 0.00 77 1020.5
20260901140338 82 343 0.0 0.0 0.00 0.00 0.00 80 1020.5
20260901135833 82 207 3.0 5.0 0.00 0.00 0.00 81 1020.5
20260901135328 81 280 0.0 0.0 0.00 0.00 0.00 81 1020.4
20260901134824 81 62 2.0 2.0 0.00 0.00 0.00 82 1020.4
20260901134319 81 305 2.0 2.0 0.00 0.00 0.00 82 1020.4
20260901133813 80 335 2.0 2.0 0.00 0.00 0.00 84 1020.1
20260901133312 79 325 1.0 1.0 0.00 0.00 0.00 84 1020.1
20260901132811 79 284 3.0 3.0 0.00 0.00 0.00 85 1020.4
20260901132307 79 300 2.0 2.0 0.00 0.00 0.00 86 1020.5
20260901131805 79 272 2.0 2.0 0.00 0.00 0.00 86 1020.4
20260901131300 78 263 4.0 6.0 0.00 0.00 0.00 85 1020.6
20260901130755 77 310 1.0 2.0 0.00 0.00 0.00 88 1020.8
20260901130255 77 358 1.0 1.0 0.00 0.00 0.00 88 1020.6
20260901125753 76 338 0.0 1.0 0.00 0.00 0.00 90 1020.8
20260901125247 76 348 1.0 1.0 0.00 0.00 0.00 91 1020.7
20260901124742 74 6 1.0 2.0 0.00 0.00 0.00 94 1020.8
20260901124237 74 339 1.0 2.0 0.00 0.00 0.00 95 1020.6
20260901123736 73 311 0.0 0.0 0.00 0.00 0.00 97 1020.7
20260901123231 72 285 0.0 0.0 0.00 0.00 0.00 99 1020.6
20260901122730 72 344 0.0 0.0 0.00 0.00 0.00 99 1020.7
20260901122225 71 354 0.0 0.0 0.00 0.00 0.00 99 1020.7
20260901121719 71 8 0.0 0.0 0.00 0.00 0.00 99 1020.8
20260901121215 70 351 0.0 0.0 0.00 0.00 0.00 99 1020.6
20260901120714 70 345 0.0 0.0 0.00 0.00 0.00 99 1020.5